[[{"header":{"parameterUnit":"m.s-1","parameterCategory":1,"la1":30.2991,"la2":30.254,"lo1":-89.0895,"lo2":-89.0444,"dy":0.0017,"dx":0.0017,"nx":28,"ny":28,"refTime":"2024-05-15T21:00:00:Z","depth":0,"parameterNumber":2,"parameterNumberName":"U-component_of_WINDS"},"data":[0,0,0,0,0,0,0,0,0,0,0,0,0,0,0,0,0,0,0,0,0,0,0,0,0,0,0,0,0,0,0,0,0,0,0,0,0,0,0,0,0,0,0,0,0,0,0,0,0,0,0,0,0,0,0,0,0,0,-2.1019,-2.1019,0,-2.1013,-2.1012,-2.1012,-2.1016,-2.1016,-2.1017,-2.1017,-2.1008,-2.1008,-2.1007,0,0,0,0,0,0,0,0,0,0,0,0,0,-2.1034,-2.1033,-2.1019,-2.1019,-2.1019,-2.1013,-2.1012,-2.1012,-2.1016,-2.1016,-2.1017,-2.1017,-2.1008,-2.1008,-2.1007,0,0,0,0,0,0,0,0,0,0,0,0,0,-2.1027,-2.1033,-2.1019,-2.102,-2.102,-2.1013,-2.1012,-2.1012,-2.1016,-2.1016,-2.1017,-2.1017,-2.1009,-2.1008,-2.1007,-2.0998,0,0,-2.1005,-2.1005,0,0,0,0,0,0,0,0,-2.1027,-2.1027,-2.102,-2.102,-2.102,-2.1016,-2.1014,-2.1007,-2.1016,-2.1018,-2.1017,-2.1017,-2.101,-2.101,-2.1008,-2.0997,-2.0997,-2.1005,-2.1005,-2.1005,-2.1005,0,0,0,0,0,0,0,-2.1028,-2.1027,-2.1016,-2.102,-2.102,-2.1021,-2.102,-2.1013,-2.1012,-2.1018,-2.1018,-2.1017,-2.101,-2.1008,-2.1007,-2.0997,-2.1005,-2.1005,-2.1004,-2.1004,-2.0979,-2.0979,0,0,0,0,0,0,-2.1029,-2.1027,-2.1017,-2.1016,-2.1025,-2.102,-2.1019,-2.1017,-2.1012,-2.1012,-2.1017,-2.1017,-2.1009,-2.1008,-2.1007,-2.0996,-2.1005,-2.1004,-2.1004,-2.0979,-2.0979,-2.0978,0,0,0,0,0,0,-2.1029,-2.1028,-2.1017,-2.1022,-2.1021,-2.1019,-2.1016,-2.1016,-2.1014,-2.1012,-2.1012,-2.1015,-2.1009,-2.1008,-2.1,-2.0995,-2.1004,-2.1003,-2.098,-2.0979,-2.0979,-2.0973,0,0,0,0,0,0,-2.1029,-2.1028,-2.1024,-2.1022,-2.102,-2.101,-2.1016,-2.1016,-2.1013,-2.1014,-2.101,-2.101,-2.1009,-2.1001,-2.1,-2.0995,-2.1003,-2.098,-2.0979,-2.0979,-2.0973,-2.0972,-2.0971,0,0,0,0,0,-2.103,-2.1022,-2.1024,-2.1023,-2.1016,-2.101,-2.1009,-2.101,-2.1013,-2.1009,-2.1008,-2.101,-2.0997,-2.1,-2.0999,-2.0993,-2.098,-2.0979,-2.0979,-2.0974,-2.0972,-2.0971,0,0,0,0,0,0,-2.1023,-2.1022,-2.1024,-2.1015,-2.1013,-2.1011,-2.1006,-2.1008,-2.1004,-2.1004,-2.1005,-2.1004,-2.0996,-2.0994,-2.0998,-2.0984,-2.0989,-2.0988,-2.0985,-2.0984,-2.0983,-2.0983,-2.1002,0,0,0,0,0,-2.1021,-2.1016,-2.1016,-2.1008,-2.1007,-2.1007,-2.1004,-2.1005,-2.1002,-2.1001,-2.0999,-2.0996,-2.0991,-2.0988,-2.0983,-2.0973,-2.0972,-2.0969,-2.0968,-2.0967,-2.0966,-2.0961,-2.0959,-2.0976,-2.0976,-2.0976,0,0,-2.1015,-2.1014,-2.1011,-2.1007,-2.1005,-2.1,-2.1006,-2.1,-2.0997,-2.1,-2.0992,-2.0991,-2.0988,-2.0979,-2.0975,-2.0977,-2.0961,-2.0966,-2.0965,-2.0965,-2.096,-2.0958,-2.0957,-2.0976,-2.0976,-2.0976,0,0,-2.1003,-2.1002,-2.0996,-2.0994,-2.0992,-2.0992,-2.0991,-2.0989,-2.0988,-2.0981,-2.0984,-2.0979,-2.0971,-2.0968,-2.0966,-2.0955,-2.0956,-2.0953,-2.0947,-2.0942,-2.094,-2.0939,-2.0935,-2.0933,-2.0952,-2.0952,-2.0952,0,-2.0996,-2.099,-2.0992,-2.0987,-2.0985,-2.0989,-2.0982,-2.0981,-2.0977,-2.0975,-2.0978,-2.0968,-2.0966,-2.0957,-2.0954,-2.0952,-2.095,-2.0953,-2.0941,-2.0939,-2.0938,-2.0934,-2.0932,-2.0952,-2.0952,-2.0952,-2.0952,0,-2.0981,-2.0977,-2.0972,-2.0969,-2.0967,-2.0961,-2.0962,-2.0959,-2.0961,-2.0961,-2.0954,-2.0952,-2.0947,-2.0945,-2.0946,-2.0936,-2.0938,-2.0941,-2.0945,-2.0936,-2.0932,-2.093,-2.0951,-2.0951,-2.0952,-2.0952,0,0,-2.0963,-2.0963,-2.0961,-2.096,-2.0958,-2.0955,-2.0949,-2.0946,-2.0943,-2.0941,-2.0936,-2.0929,-2.0932,-2.093,-2.0931,-2.0926,-2.0917,-2.093,-2.093,-2.0927,-2.0906,-2.0903,-2.0901,-2.0919,-2.0919,-2.0918,-2.0906,0,-2.095,-2.0941,-2.0944,-2.0934,-2.093,-2.0935,-2.093,-2.0929,-2.0929,-2.0925,-2.0925,-2.0921,-2.0925,-2.0924,-2.092,-2.0919,-2.0913,-2.092,-2.0913,-2.0913,-2.0913,-2.0899,-2.0895,-2.0884,-2.0904,-2.0904,-2.0904,0,-2.0933,-2.0931,-2.0921,-2.0922,-2.092,-2.0916,-2.0913,-2.091,-2.0908,-2.0909,-2.0907,-2.0909,-2.0903,-2.0909,-2.0901,-2.0906,-2.0904,-2.0903,-2.0903,-2.0901,-2.0907,-2.0896,-2.088,-2.0878,-2.0902,-2.0902,-2.0902,0,-2.0919,-2.0914,-2.0908,-2.0907,-2.0907,-2.0904,-2.0904,-2.0903,-2.0901,-2.0899,-2.0897,-2.0894,-2.0892,-2.0889,-2.0891,-2.0895,-2.0882,-2.0888,-2.0882,-2.0882,-2.0878,-2.0878,-2.0861,-2.0878,-2.0878,-2.0878,-2.0878,0,-2.0903,-2.0897,-2.0902,-2.0898,-2.0891,-2.0895,-2.0888,-2.0889,-2.0888,-2.0884,-2.0888,-2.0884,-2.0887,-2.0883,-2.0884,-2.0877,-2.0877,-2.0876,-2.0876,-2.0875,-2.0875,-2.0873,-2.0873,-2.0878,-2.0878,-2.0878,-2.0878,0,-2.0886,-2.0889,-2.0883,-2.0884,-2.0884,-2.0879,-2.088,-2.0877,-2.0878,-2.0873,-2.0872,-2.0874,-2.087,-2.0871,-2.0867,-2.0868,-2.0859,-2.086,-2.0859,-2.0859,-2.0853,-2.0853,-2.0832,-2.0829,-2.085,-2.085,-2.085,0,-2.0875,-2.087,-2.0872,-2.087,-2.087,-2.0867,-2.0865,-2.0869,-2.0867,-2.0866,-2.0863,-2.0859,-2.0856,-2.085,-2.085,-2.0847,-2.0848,-2.0841,-2.0847,-2.0846,-2.0847,-2.0846,-2.0846,-2.0839,-2.0839,-2.0839,-2.0839,0,-2.0855,-2.0857,-2.0855,-2.0854,-2.0852,-2.0851,-2.085,-2.0848,-2.0852,-2.085,-2.0846,-2.0844,-2.084,-2.0837,-2.0834,-2.0833,-2.0836,-2.0837,-2.0835,-2.0833,-2.0832,-2.0832,-2.0855,-2.0837,-2.0837,-2.0837,-2.0837,-2.0837,-2.0839,-2.0836,-2.0837,-2.0835,-2.0835,-2.0834,-2.0831,-2.0833,-2.083,-2.0828,-2.0831,-2.0826,-2.0826,-2.0823,-2.0822,-2.0819,-2.0821,-2.0819,-2.0818,-2.0817,-2.0816,-2.0834,-2.0819,-2.0819,-2.0819,-2.0819,-2.0819,0,-2.0819,-2.082,-2.0818,-2.0818,-2.0816,-2.0821,-2.0821,-2.0818,-2.0815,-2.0815,-2.0813,-2.0809,-2.0806,-2.0807,-2.0804,-2.0801,-2.0803,-2.08,-2.08,-2.08,-2.0814,-2.0816,-2.0799,-2.0799,-2.08,-2.08,-2.08,-2.08,-2.0808,-2.0802,-2.0805,-2.08,-2.0801,-2.0797,-2.0797,-2.0796,-2.0797,-2.0793,-2.079,-2.0792,-2.0792,-2.079,-2.0787,-2.0788,-2.0786,-2.0783,-2.0784,-2.0797,-2.0799,-2.08,-2.0802,-2.0783,-2.0783,-2.077,-2.0769,-2.0769]},{"header":{"parameterUnit":"m.s-1","parameterCategory":1,"la1":30.2991,"la2":30.254,"lo1":-89.0895,"lo2":-89.0444,"dy":0.0017,"dx":0.0017,"nx":28,"ny":28,"refTime":"2024-05-15T21:00:00:Z","depth":0,"parameterNumber":3,"parameterNumberName":"V-component_of_WINDS"},"data":[0,0,0,0,0,0,0,0,0,0,0,0,0,0,0,0,0,0,0,0,0,0,0,0,0,0,0,0,0,0,0,0,0,0,0,0,0,0,0,0,0,0,0,0,0,0,0,0,0,0,0,0,0,0,0,0,0,0,1.1243,1.1243,0,1.1227,1.1227,1.1226,1.1272,1.1274,1.1275,1.1277,1.1259,1.1257,1.1255,0,0,0,0,0,0,0,0,0,0,0,0,0,1.1313,1.1312,1.1243,1.1243,1.1242,1.1227,1.1227,1.1226,1.1272,1.1274,1.1276,1.1277,1.1259,1.1257,1.1255,0,0,0,0,0,0,0,0,0,0,0,0,0,1.1288,1.1311,1.1243,1.1264,1.1265,1.1227,1.1227,1.1226,1.1272,1.1274,1.1276,1.1278,1.126,1.1258,1.1255,1.1195,0,0,1.1247,1.1245,0,0,0,0,0,0,0,0,1.129,1.1286,1.1261,1.1262,1.1264,1.1254,1.1245,1.1216,1.1271,1.1269,1.1277,1.1279,1.1255,1.1253,1.1245,1.1195,1.1194,1.1246,1.1245,1.1244,1.1243,0,0,0,0,0,0,0,1.1291,1.1287,1.1236,1.126,1.1262,1.1274,1.1272,1.124,1.125,1.127,1.1273,1.127,1.1257,1.1248,1.1245,1.1194,1.1246,1.1244,1.1242,1.1241,1.1094,1.1092,0,0,0,0,0,0,1.129,1.1288,1.1237,1.1236,1.1282,1.127,1.1269,1.1255,1.1251,1.1252,1.1269,1.1273,1.1252,1.1248,1.1245,1.1175,1.1244,1.1241,1.1239,1.1096,1.1093,1.1091,0,0,0,0,0,0,1.1292,1.1285,1.1238,1.1263,1.1258,1.1267,1.1251,1.1253,1.1245,1.125,1.1252,1.1258,1.1253,1.1249,1.1208,1.1175,1.124,1.1237,1.1099,1.1095,1.1092,1.1035,0,0,0,0,0,0,1.1294,1.1286,1.1263,1.1262,1.1256,1.12,1.1249,1.1252,1.124,1.1245,1.1241,1.1242,1.1254,1.1211,1.1205,1.1173,1.1235,1.1102,1.1097,1.1093,1.104,1.1031,1.1022,0,0,0,0,0,1.1296,1.1247,1.1262,1.1255,1.1228,1.1199,1.1195,1.1211,1.1237,1.1215,1.1219,1.1242,1.118,1.1207,1.12,1.1166,1.1104,1.1099,1.1094,1.1044,1.1032,1.1022,0,0,0,0,0,0,1.1244,1.1247,1.1263,1.1213,1.1205,1.1206,1.1178,1.1198,1.1182,1.1187,1.1207,1.1206,1.1161,1.116,1.1189,1.1109,1.1147,1.114,1.1111,1.11,1.1091,1.1092,1.1233,0,0,0,0,0,1.1226,1.1202,1.1207,1.1162,1.1157,1.1168,1.1156,1.1169,1.1162,1.1158,1.1159,1.1151,1.113,1.1115,1.1096,1.1041,1.104,1.1014,1.1005,1.0998,1.0992,1.0963,1.0951,1.1074,1.1074,1.1074,0,0,1.119,1.1189,1.1173,1.1151,1.1147,1.1121,1.1165,1.1136,1.1118,1.1154,1.1115,1.1116,1.1108,1.1059,1.1038,1.1057,1.0958,1.0991,1.0985,1.0983,1.0956,1.0945,1.0935,1.1071,1.1071,1.1072,0,0,1.1111,1.1108,1.1071,1.1065,1.1058,1.1066,1.1057,1.1056,1.1057,1.1019,1.1046,1.1024,1.0987,1.0981,1.0972,1.0892,1.0913,1.0885,1.0838,1.081,1.08,1.0792,1.0763,1.0753,1.0879,1.0879,1.0879,0,1.1067,1.103,1.1049,1.1018,1.1008,1.1041,1.1003,1.0997,1.0984,1.0976,1.0998,1.0952,1.0949,1.09,1.0881,1.0873,1.0863,1.0886,1.08,1.0792,1.0784,1.0757,1.0746,1.0876,1.0876,1.0877,1.0877,0,1.0976,1.095,1.092,1.0907,1.0894,1.086,1.0874,1.0858,1.0873,1.0878,1.0839,1.0837,1.0818,1.0808,1.0821,1.0761,1.0773,1.0797,1.0835,1.0769,1.0744,1.0733,1.0871,1.0872,1.0873,1.0874,0,0,1.0862,1.0861,1.085,1.0845,1.084,1.082,1.0788,1.077,1.0756,1.0746,1.072,1.0688,1.0711,1.0702,1.0715,1.069,1.0627,1.0717,1.0718,1.0701,1.0561,1.0542,1.053,1.0642,1.064,1.0638,1.0561,0,1.0784,1.0729,1.0745,1.069,1.0666,1.0698,1.067,1.0664,1.0669,1.0649,1.0655,1.0632,1.0664,1.0658,1.0635,1.064,1.0599,1.0645,1.0617,1.0615,1.0617,1.0517,1.0497,1.0424,1.0551,1.055,1.0549,0,1.0685,1.0672,1.0614,1.0614,1.0605,1.0579,1.0565,1.0546,1.054,1.0546,1.0536,1.0555,1.0523,1.0562,1.0519,1.055,1.0539,1.054,1.0537,1.0535,1.0577,1.0511,1.0401,1.039,1.0533,1.0535,1.0536,0,1.0608,1.0576,1.0537,1.0532,1.0531,1.0512,1.0511,1.0508,1.0496,1.0484,1.0476,1.046,1.0451,1.0438,1.0452,1.0479,1.0407,1.0446,1.041,1.0409,1.0392,1.0393,1.0279,1.0386,1.0387,1.0387,1.0387,0,1.0518,1.0482,1.0503,1.0479,1.0439,1.0459,1.0419,1.0421,1.0418,1.0395,1.0421,1.0399,1.042,1.04,1.041,1.0373,1.0369,1.0372,1.0375,1.0369,1.0369,1.0362,1.0367,1.0384,1.0385,1.0385,1.0386,0,1.0424,1.0437,1.0397,1.04,1.04,1.0371,1.0373,1.0351,1.0359,1.033,1.0324,1.0335,1.0313,1.0326,1.0303,1.0311,1.0262,1.0272,1.0264,1.0266,1.0229,1.0232,1.0106,1.0091,1.0208,1.0207,1.0206,0,1.0366,1.0339,1.0339,1.0326,1.0324,1.0302,1.0291,1.031,1.0297,1.0289,1.0268,1.0249,1.0234,1.0197,1.0203,1.0186,1.0196,1.0153,1.0193,1.0188,1.0195,1.0196,1.0193,1.0144,1.0143,1.0142,1.0141,0,1.0262,1.027,1.0253,1.0238,1.0224,1.0213,1.0204,1.0192,1.0211,1.0196,1.0174,1.0162,1.014,1.012,1.0106,1.0104,1.0125,1.0128,1.0119,1.0112,1.0108,1.011,1.0241,1.0131,1.0132,1.0133,1.0133,1.0133,1.0184,1.0161,1.0158,1.0139,1.0134,1.0126,1.0106,1.0111,1.0093,1.0077,1.0089,1.0063,1.0059,1.0042,1.0038,1.0018,1.0036,1.0022,1.0018,1.0014,1.0009,1.0112,1.0016,1.0016,1.0016,1.0017,1.0017,0,1.0081,1.0081,1.0062,1.005,1.0034,1.0057,1.0049,1.0034,1.0011,1.0006,0.9991,0.9966,0.9947,0.9952,0.9936,0.9919,0.9928,0.9913,0.9914,0.9914,0.9995,1.0005,0.9906,0.9906,0.9906,0.9906,0.9906,0.9906,1.0025,0.9988,0.9996,0.9957,0.9958,0.9933,0.9926,0.9919,0.9914,0.9886,0.987,0.9874,0.9873,0.9856,0.984,0.9842,0.9835,0.9816,0.9822,0.9897,0.9908,0.9918,0.9928,0.9815,0.9815,0.9743,0.9742,0.9741]}]]